Location: Forst
(46.9333°N, 15.4333°E)
Time: 14:11:03
(UTC+00:00)

CZ-4B R/B - Pass Details

Date: 01 December 2020
Orbit: 389 x 457 km, 97.6° (Epoch: 27 January)

Event Time Altitude Azimuth Distance (km) Brightness Sun altitude
Exits shadow 16:51:39 25° 16° (NNE) 862 2.5 -16.5°
Maximum altitude 16:53:20 85° 104° (ESE) 415 1.1 -16.8°
Drops below altitude 10° 16:56:30 10° 192° (SSW) 1,483 4.3 -17.3°
Sets 16:58:30 0° 193° (SSW) 2,354 5.4 -17.7°
